Flag for Germany Weather past 2 weeks in Senftenberg, Brandenburg, Germany

Now
97 °F

Passing clouds.


Feels Like: 95 °F
Forecast: 73 / 97 °F
Wind: 2 mph from East

Location: Cottbus

Current Time: Jul 4, 2015 at 7:09:07 PM

Latest Report: Jul 4, 2015 at 6:00 PM


Visibility: 16 mi

Pressure: 30.06 "Hg

Humidity: 25%

Dew point: 56 °F

Location of SenftenbergLocation

Historic Weather in Senftenberg — Graph

°F

Senftenberg temperature yesterday

Maximum temperature yesterday: 92 °F (at 4:00 PM)
Minimum temperature yesterday: 63 °F (at 5:00 AM)
Average temperature yesterday: 79 °F

Past Weeks' High & Low Weather Summary

 TemperatureHumidityPressure
High98 °F (Jul 4, 5:00 PM)100% (Jun 23, 5:00 AM)30.28 "Hg (Jun 23, 5:00 AM)
Low45 °F (Jun 25, 4:00 AM)25% (Jul 4, 4:00 PM)29.64 "Hg (Jun 23, 7:00 AM)
Average64 °F69%30.07 "Hg
* Reported Jun 19 6:00 PM — Jul 4 6:00 PM, Senftenberg, Weather by CustomWeather, © 2015

Note: Actual official high and low records may vary slightly from our data, if they occured in-between our weather recording intervals... More about our weather records

Advertising

Senftenberg weather history for previous 24 hours

 ConditionsComfort  
Time TempWeatherWind HumidityBarometerVisibility
6:00 PM
Sat, Jul 4
97 °FPassing clouds.2 mph25%30.06 "Hg16 mi
5:00 PM98 °FScattered clouds.2 mph27%30.07 "Hg17 mi
4:00 PM97 °FSunny.2 mph25%30.08 "Hg16 mi
3:00 PM96 °FSunny.2 mph27%30.10 "Hg16 mi
2:00 PM94 °FSunny.2 mph30%30.11 "Hg13 mi
1:00 PM94 °FSunny.2 mph32%30.13 "Hg15 mi
12:00 PM92 °FSunny.2 mph34%30.14 "Hg13 mi
11:00 AM88 °FSunny.2 mph37%30.16 "Hg17 mi
10:00 AM85 °FSunny.1 mph40%30.16 "Hg17 mi
9:00 AM81 °FSunny.1 mph47%30.17 "Hg22 mi
8:00 AM77 °FSunny.1 mph51%30.18 "Hg19 mi
7:00 AM72 °FSunny.1 mph58%30.18 "Hg19 mi
5:00 AM65 °FSunny.1 mph69%30.19 "Hg19 mi
4:00 AM67 °FOvercast.2 mph63%30.19 "Hg22 mi
3:00 AM69 °FOvercast.2 mph58%30.20 "Hg25 mi
2:00 AM70 °FOvercast.2 mph54%30.21 "Hg25 mi
1:00 AM69 °FOvercast.2 mph56%30.23 "Hg31 mi
11:00 PM
Fri, Jul 3
77 °FOvercast.2 mph38%30.23 "Hg31 mi
10:00 PM81 °FOvercast.2 mph35%30.22 "Hg25 mi
9:00 PM85 °FPartly sunny.2 mph31%30.21 "Hg34 mi
8:00 PM88 °FPartly sunny.3 mph28%30.20 "Hg34 mi
7:00 PM90 °FPassing clouds.3 mph28%30.20 "Hg37 mi
Weather by CustomWeather, © 2015

See weather overviewHow to use our weather pages